Tiempo cada hora Dabrowno

Hoy, 4 Agosto, Miércoles

Tiempo Temperatura Precipitaciones Viento Presión Humedad
00:00 +13°C° 0 mm 1 mps 752 mmHg 87%
01:00 +13°C° 0 mm 1 mps 752 mmHg 88%
02:00 +13°C° 0 mm 1 mps 752 mmHg 88%
03:00 +12°C° 0 mm 1 mps 752 mmHg 88%
04:00 +12°C° 0 mm 1 mps 751 mmHg 89%
05:00 +13°C° 0 mm 1 mps 752 mmHg 83%
06:00 +15°C° 0 mm 1 mps 752 mmHg 78%
07:00 +16°C° 0 mm 1 mps 752 mmHg 72%
08:00 +19°C° 0 mm 1 mps 752 mmHg 64%
09:00 +20°C° 0 mm 1 mps 752 mmHg 57%
10:00 +22°C° 0 mm 1 mps 752 mmHg 49%
11:00 +22°C° 0 mm 1 mps 752 mmHg 47%
12:00 +23°C° 0 mm 2 mps 752 mmHg 44%
13:00 +23°C° 0 mm 2 mps 751 mmHg 42%
14:00 +23°C° 0 mm 2 mps 751 mmHg 46%
15:00 +21°C° 0 mm 3 mps 751 mmHg 49%
16:00 +21°C° 0 mm 3 mps 751 mmHg 53%
17:00 +20°C° 0 mm 3 mps 751 mmHg 58%
18:00 +19°C° 0 mm 2 mps 751 mmHg 64%
19:00 +18°C° 0 mm 2 mps 751 mmHg 69%
20:00 +17°C° 0 mm 2 mps 752 mmHg 74%
21:00 +15°C° 0 mm 2 mps 752 mmHg 79%
22:00 +14°C° 0 mm 2 mps 752 mmHg 84%
23:00 +14°C° 0 mm 2 mps 752 mmHg 85%

Mañana, 5 Agosto, Jueves

Tiempo Temperatura Precipitaciones Viento Presión Humedad
00:00 +14°C° 0 mm 2 mps 752 mmHg 86%
01:00 +13°C° 0 mm 1 mps 752 mmHg 88%
02:00 +13°C° 0 mm 1 mps 752 mmHg 88%
03:00 +13°C° 0 mm 1 mps 752 mmHg 89%
04:00 +13°C° 0 mm 1 mps 751 mmHg 89%
05:00 +14°C° 0 mm 2 mps 751 mmHg 82%
06:00 +16°C° 0 mm 2 mps 751 mmHg 74%
07:00 +18°C° 0 mm 2 mps 752 mmHg 66%
08:00 +19°C° 0 mm 2 mps 751 mmHg 59%
09:00 +21°C° 0 mm 3 mps 751 mmHg 51%
10:00 +22°C° 0 mm 3 mps 751 mmHg 44%
11:00 +24°C° 0 mm 3 mps 751 mmHg 41%
12:00 +25°C° 0 mm 3 mps 750 mmHg 39%
13:00 +25°C° 0 mm 4 mps 750 mmHg 36%
14:00 +25°C° 0 mm 4 mps 750 mmHg 38%
15:00 +25°C° 0 mm 5 mps 750 mmHg 40%
16:00 +23°C° 0 mm 6 mps 749 mmHg 42%
17:00 +22°C° 0 mm 5 mps 749 mmHg 49%
18:00 +20°C° 0 mm 5 mps 749 mmHg 57%
19:00 +19°C° 0 mm 4 mps 749 mmHg 64%
20:00 +18°C° 0 mm 4 mps 749 mmHg 70%
21:00 +17°C° 0 mm 3 mps 749 mmHg 76%
22:00 +16°C° 0 mm 3 mps 749 mmHg 82%
23:00 +16°C° 0 mm 3 mps 749 mmHg 81%

Pasado mañana, 6 Agosto, Viernes

Tiempo Temperatura Precipitaciones Viento Presión Humedad
00:00 +16°C° 0 mm 3 mps 749 mmHg 79%
01:00 +16°C° 0 mm 2 mps 748 mmHg 77%
02:00 +16°C° 0 mm 2 mps 748 mmHg 78%
03:00 +16°C° 0 mm 2 mps 748 mmHg 78%
04:00 +16°C° 0 mm 2 mps 748 mmHg 78%
05:00 +17°C° 0 mm 3 mps 748 mmHg 76%
06:00 +18°C° 0 mm 3 mps 748 mmHg 74%
07:00 +19°C° 0 mm 3 mps 748 mmHg 72%
08:00 +20°C° 0 mm 4 mps 748 mmHg 65%
09:00 +21°C° 0 mm 4 mps 748 mmHg 58%
10:00 +22°C° 0 mm 5 mps 748 mmHg 52%
11:00 +22°C° 0 mm 4 mps 748 mmHg 49%
12:00 +23°C° 0 mm 4 mps 747 mmHg 47%
13:00 +23°C° 0 mm 4 mps 747 mmHg 45%
14:00 +22°C° 0 mm 4 mps 747 mmHg 47%
15:00 +22°C° 0 mm 4 mps 747 mmHg 49%
16:00 +21°C° 0 mm 4 mps 747 mmHg 51%
17:00 +20°C° 0 mm 4 mps 747 mmHg 55%
18:00 +19°C° 0 mm 3 mps 747 mmHg 60%
19:00 +19°C° 0 mm 3 mps 747 mmHg 65%
20:00 +18°C° 0 mm 2 mps 747 mmHg 70%
21:00 +18°C° 0 mm 1 mps 747 mmHg 75%
22:00 +16°C° 0 mm 1 mps 747 mmHg 80%
23:00 +15°C° 0 mm 1 mps 747 mmHg 80%

7 Agosto, Sábado

Tiempo Temperatura Precipitaciones Viento Presión Humedad
00:00 +15°C° 0 mm 1 mps 747 mmHg 80%
01:00 +15°C° 0 mm 1 mps 747 mmHg 80%
02:00 +15°C° 0 mm 1 mps 747 mmHg 80%
03:00 +14°C° 0 mm 2 mps 747 mmHg 81%
04:00 +14°C° 0 mm 2 mps 747 mmHg 81%
05:00 +16°C° 0 mm 2 mps 747 mmHg 74%
06:00 +17°C° 0 mm 2 mps 747 mmHg 67%
07:00 +19°C° 0 mm 2 mps 747 mmHg 59%
08:00 +20°C° 0 mm 2 mps 747 mmHg 53%
09:00 +23°C° 0 mm 2 mps 747 mmHg 46%
10:00 +25°C° 0 mm 2 mps 747 mmHg 40%
11:00 +26°C° 0 mm 2 mps 747 mmHg 38%
12:00 +27°C° 0 mm 2 mps 747 mmHg 36%
13:00 +27°C° 0 mm 3 mps 746 mmHg 35%
14:00 +26°C° 0 mm 2 mps 747 mmHg 42%
15:00 +25°C° 0 mm 2 mps 747 mmHg 49%
16:00 +23°C° 0 mm 2 mps 747 mmHg 56%
17:00 +23°C° 0.1 mm 2 mps 747 mmHg 61%
18:00 +21°C° 0.1 mm 2 mps 747 mmHg 65%
19:00 +21°C° 0.1 mm 2 mps 747 mmHg 69%
20:00 +20°C° 0 mm 2 mps 747 mmHg 71%
21:00 +19°C° 0 mm 2 mps 747 mmHg 73%
22:00 +18°C° 0 mm 2 mps 747 mmHg 75%
23:00 +18°C° 0.1 mm 3 mps 747 mmHg 76%

8 Agosto, Domingo

Tiempo Temperatura Precipitaciones Viento Presión Humedad
00:00 +18°C° 0.1 mm 3 mps 747 mmHg 76%
01:00 +18°C° 0.1 mm 4 mps 747 mmHg 77%
02:00 +17°C° 0.4 mm 3 mps 747 mmHg 83%
03:00 +17°C° 0.4 mm 3 mps 747 mmHg 88%
04:00 +16°C° 0.4 mm 2 mps 747 mmHg 94%
05:00 +17°C° 0.5 mm 3 mps 747 mmHg 94%
06:00 +17°C° 0.5 mm 3 mps 747 mmHg 94%
07:00 +17°C° 0.5 mm 4 mps 747 mmHg 93%
08:00 +18°C° 0.1 mm 4 mps 747 mmHg 87%
09:00 +20°C° 0.1 mm 5 mps 748 mmHg 81%
10:00 +21°C° 0.1 mm 5 mps 748 mmHg 75%
11:00 +22°C° 0.1 mm 6 mps 749 mmHg 66%
12:00 +23°C° 0.1 mm 6 mps 749 mmHg 57%
13:00 +24°C° 0.1 mm 6 mps 749 mmHg 47%
14:00 +26°C° 0 mm 6 mps 750 mmHg 45%
15:00 +26°C° 0 mm 5 mps 750 mmHg 44%
16:00 +26°C° 0 mm 5 mps 750 mmHg 42%
17:00 +24°C° 0 mm 3 mps 751 mmHg 46%
18:00 +23°C° 0 mm 2 mps 751 mmHg 51%
19:00 +21°C° 0 mm 1 mps 752 mmHg 56%
20:00 +19°C° 0.1 mm 2 mps 752 mmHg 60%
21:00 +18°C° 0.1 mm 2 mps 752 mmHg 64%
22:00 +17°C° 0.1 mm 2 mps 753 mmHg 67%
23:00 +17°C° 0.1 mm 2 mps 753 mmHg 71%

9 Agosto, Lunes

Tiempo Temperatura Precipitaciones Viento Presión Humedad
00:00 +16°C° 0.1 mm 2 mps 753 mmHg 76%
01:00 +16°C° 0.1 mm 2 mps 753 mmHg 80%
02:00 +14°C° 0 mm 3 mps 753 mmHg 82%
03:00 +14°C° 0 mm 3 mps 753 mmHg 84%
04:00 +13°C° 0 mm 3 mps 753 mmHg 87%
05:00 +16°C° 0 mm 3 mps 754 mmHg 82%
06:00 +17°C° 0 mm 3 mps 754 mmHg 78%
07:00 +18°C° 0 mm 3 mps 754 mmHg 73%
08:00 +19°C° 0 mm 3 mps 755 mmHg 65%
09:00 +21°C° 0 mm 4 mps 755 mmHg 57%
10:00 +22°C° 0 mm 4 mps 755 mmHg 49%
11:00 +23°C° 0 mm 4 mps 755 mmHg 45%
12:00 +25°C° 0 mm 4 mps 755 mmHg 40%
13:00 +26°C° 0 mm 3 mps 755 mmHg 36%
14:00 +25°C° 0 mm 3 mps 754 mmHg 39%
15:00 +25°C° 0 mm 3 mps 754 mmHg 42%
16:00 +24°C° 0 mm 2 mps 754 mmHg 45%
17:00 +23°C° 0 mm 2 mps 754 mmHg 52%
18:00 +20°C° 0 mm 2 mps 754 mmHg 58%
19:00 +19°C° 0 mm 2 mps 754 mmHg 65%
20:00 +19°C° 0 mm 2 mps 754 mmHg 67%
21:00 +18°C° 0 mm 2 mps 754 mmHg 70%
22:00 +18°C° 0 mm 2 mps 754 mmHg 72%
23:00 +17°C° 0 mm 2 mps 754 mmHg 73%
Mostrar más

Necesitamos Su Consentimiento

Meteoprog y nuestros Proveedores de Servicios pueden almacenar y acceder a sus datos personales como cookies, identificadores de dispositivo u otras tecnologías similares de su dispositivo y procesar dichos datos para personalizar contenido y anuncios, además de ofrecer funciones de redes sociales y analizar el tráfico.

  • Almacenar y/o acceder a información en su dispositivo

    Se puede almacenar o acceder a cookies, identificadores de dispositivo u otra información de su dispositivo para los fines anteriormente indicados.

  • Anuncios y contenido personalizados, medición de anuncios y contenido, percepciones del público, y desarrollo de productos

    Los anuncios y el contenido pueden personalizarse en base a su perfil. Se pueden añadir más datos para personalizar mejor los anuncios y contenidos. Se puede medir el rendimiento de los anuncios y contenidos. Se puede obtener la percepción sobre el público que ha visto los anuncios y contenidos. Dichos datos pueden usarse para desarrollar o mejorar la experiencia del usuario, sistemas y software.

Al hacer clic en ‘Estoy De Acuerdo’ usted permitirá el uso de las cookies, identificadores de dispositivo, balizas web u otras tecnologías similares indicadas. Su configuración puede cambiarse desde el navegador de su dispositivo.

Para ciertos fines, los intereses legítimos pueden ser considerados por encima del consentimiento. Puede leer más sobre ello en nuestra Política de Privacidad y Cookies.